Weather History for Sulphur Springs, TX

Change the Weather History Date:

Wednesday, January 9, 2013

  Actual Average (KGVT) Record (KGVT)
Temperature  
Mean Temperature 52 °F -  
Max Temperature 55 °F 55 °F 75 °F (2009)
Min Temperature 50 °F 38 °F 28 °F (2011)
Degree Days  
Heating Degree Days 12    
Growing Degree Days 2 (Base 50)    
Moisture  
Dew Point 52 °F    
Average Humidity 97    
Maximum Humidity 100    
Minimum Humidity 94    
Precipitation  
Precipitation 1.64 in - - ()
Sea Level Pressure  
Sea Level Pressure 30.12 in    
Wind  
Wind Speed 8 mph (ENE)    
Max Wind Speed 21 mph    
Max Gust Speed 25 mph    
Visibility 6 miles    
Events Rain    
Averages and records for this station are not official NWS values.
T = Trace of Precipitation, MM = Missing Value Source: NWS Daily Summary

Daily Weather History Graph

Daily Weather History Graph

Search for Another Location

Airport:

Trip Planner

Search our weather history database for the weather conditions in past years. The results will help you decide how hot, cold, wet, or windy it might be!

Date:

Astronomy

Jan. 09, 2013 Rise Set
Actual Time 7:26 AM CST 5:33 PM CST
Civil Twilight 6:59 AM CST 6:00 PM CST
Nautical Twilight 6:28 AM CST 6:30 PM CST
Astronomical Twilight 5:58 AM CST 7:00 PM CST
Moon 5:06 AM CST (1/9) 3:36 PM CST (1/9)
Length of Visible Light 11h 00m
Length of Day
10h 06m
Waning Crescent, 6% of the Moon is Illuminated
Jan 9
Waning Crescent
Jan 11
New
Jan 18
First Quarter
Jan 26
Full
Feb 3
Last Quarter

Hourly Weather History & Observations

Time (CST) Temp. Dew Point Humidity Pressure Visibility Wind Dir Wind Speed Gust Speed Precip Events Conditions
12:15 AM 50.0 °F 48.2 °F 94% 30.12 in 4.0 mi NE 5.8 mph - N/A Rain Light Rain
12:35 AM 50.0 °F 48.2 °F 94% 30.12 in 2.5 mi NNW 6.9 mph - N/A   Overcast
12:55 AM 50.0 °F 48.2 °F 94% 30.11 in 2.0 mi NE 4.6 mph - N/A   Overcast
1:15 AM 50.0 °F 48.2 °F 94% 30.10 in 1.5 mi ENE 4.6 mph - 0.01 in Rain Light Rain
1:35 AM 50.0 °F 50.0 °F 100% 30.10 in 1.2 mi East 5.8 mph - 0.01 in   Overcast
1:55 AM 50.0 °F 50.0 °F 100% 30.10 in 1.2 mi ENE 6.9 mph - 0.01 in   Light Drizzle
2:15 AM 50.0 °F 48.2 °F 94% 30.12 in 0.8 mi North 4.6 mph - N/A   Overcast
2:35 AM 50.0 °F 50.0 °F 100% 30.12 in 1.2 mi ENE 5.8 mph - 0.03 in Rain Rain
2:55 AM 50.0 °F 50.0 °F 100% 30.12 in 1.8 mi NE 4.6 mph - 0.08 in Rain Rain
3:15 AM 50.0 °F 50.0 °F 100% 30.13 in 3.0 mi NNE 3.5 mph - 0.04 in Rain Rain
3:35 AM 51.8 °F 50.0 °F 94% 30.11 in 5.0 mi East 6.9 mph - 0.06 in Rain Light Rain
3:55 AM 51.8 °F 50.0 °F 94% 30.12 in 5.0 mi NE 6.9 mph - 0.07 in Rain Light Rain
4:15 AM 51.8 °F 50.0 °F 94% 30.12 in 5.0 mi East 4.6 mph - 0.01 in Rain Light Rain
4:35 AM 51.8 °F 50.0 °F 94% 30.12 in 5.0 mi ENE 3.5 mph - 0.04 in Rain Rain
4:55 AM 51.8 °F 50.0 °F 94% 30.12 in 5.0 mi NE 4.6 mph - 0.06 in Rain Rain
5:15 AM 51.8 °F 50.0 °F 94% 30.13 in 7.0 mi ENE 5.8 mph - 0.01 in Rain Rain
5:35 AM 51.8 °F 50.0 °F 94% 30.14 in 7.0 mi ENE 8.1 mph - 0.03 in Rain Rain
5:55 AM 51.8 °F 50.0 °F 94% 30.13 in 5.0 mi NE 6.9 mph - 0.05 in Rain Rain
6:15 AM 51.8 °F 50.0 °F 94% 30.13 in 7.0 mi NE 5.8 mph - 0.02 in Rain Rain
6:35 AM 51.8 °F 50.0 °F 94% 30.14 in 7.0 mi NE 5.8 mph - 0.04 in Rain Rain
6:55 AM 51.8 °F 50.0 °F 94% 30.14 in 7.0 mi ENE 6.9 mph - 0.06 in Rain Rain
7:15 AM 51.8 °F 50.0 °F 94% 30.15 in 7.0 mi NE 6.9 mph - 0.02 in Rain Rain
7:35 AM 51.8 °F 51.8 °F 100% 30.16 in 7.0 mi NE 6.9 mph - 0.07 in Rain Rain
7:55 AM 51.8 °F 51.8 °F 100% 30.16 in 7.0 mi NE 6.9 mph - 0.11 in Rain Rain
8:15 AM 51.8 °F 51.8 °F 100% 30.16 in 5.0 mi NE 9.2 mph - 0.03 in Rain Rain
8:35 AM 51.8 °F 51.8 °F 100% 30.17 in 5.0 mi NE 6.9 mph - 0.06 in Rain Rain
8:55 AM 51.8 °F 51.8 °F 100% 30.18 in 7.0 mi ENE 6.9 mph - 0.09 in Rain Rain
9:15 AM 53.6 °F 51.8 °F 94% 30.18 in 10.0 mi ENE 11.5 mph - 0.01 in Rain Light Rain
9:35 AM 53.6 °F 51.8 °F 94% 30.17 in 7.0 mi ENE 11.5 mph - 0.03 in Rain Light Rain
9:55 AM 53.6 °F 51.8 °F 94% 30.17 in 7.0 mi ENE 11.5 mph 17.3 mph 0.04 in Rain Rain
10:15 AM 53.6 °F 53.6 °F 100% 30.18 in 10.0 mi East 11.5 mph - N/A Rain Light Rain
10:35 AM 53.6 °F 53.6 °F 100% 30.17 in 7.0 mi ENE 11.5 mph - 0.01 in   Light Drizzle
10:55 AM 53.6 °F 53.6 °F 100% 30.17 in 7.0 mi East 8.1 mph 11.5 mph 0.03 in Rain Rain
11:15 AM 53.6 °F 53.6 °F 100% 30.17 in 7.0 mi ENE 6.9 mph - 0.02 in Rain Light Rain
11:35 AM 53.6 °F 53.6 °F 100% 30.16 in 7.0 mi ENE 6.9 mph - 0.04 in Rain Light Rain
11:55 AM 53.6 °F 53.6 °F 100% 30.15 in 5.0 mi ENE 8.1 mph - 0.07 in Rain Rain
12:15 PM 53.6 °F 53.6 °F 100% 30.14 in 3.0 mi ENE 9.2 mph - 0.05 in Rain Rain
12:35 PM 55.4 °F 53.6 °F 94% 30.14 in 4.0 mi ENE 9.2 mph - 0.12 in Rain Rain
12:55 PM 55.4 °F 53.6 °F 94% 30.12 in 5.0 mi NE 10.4 mph - 0.17 in Rain Rain
1:15 PM 55.4 °F 53.6 °F 94% 30.11 in 4.0 mi ENE 11.5 mph 16.1 mph 0.04 in Rain Rain
1:35 PM 53.6 °F 53.6 °F 100% 30.10 in 5.0 mi ENE 16.1 mph 19.6 mph 0.08 in Rain Light Rain
1:55 PM 55.4 °F 53.6 °F 94% 30.10 in 7.0 mi ENE 12.7 mph - 0.12 in Rain Light Rain
2:15 PM 55.4 °F 53.6 °F 94% 30.12 in 4.0 mi East 10.4 mph - 0.07 in Rain Heavy Rain
2:35 PM 53.6 °F 53.6 °F 100% 30.10 in 3.0 mi ENE 11.5 mph - 0.28 in Rain Rain
2:55 PM 53.6 °F 53.6 °F 100% 30.11 in 4.0 mi East 6.9 mph - 0.35 in Rain Rain
3:15 PM 53.6 °F 53.6 °F 100% 30.11 in 3.0 mi East 11.5 mph 19.6 mph 0.11 in Rain Rain
3:35 PM 53.6 °F 53.6 °F 100% 30.11 in 4.0 mi ENE 15.0 mph 18.4 mph 0.19 in Rain Light Rain
3:55 PM 53.6 °F 53.6 °F 100% 30.12 in 5.0 mi East 10.4 mph - 0.23 in Rain Light Rain
4:15 PM 53.6 °F 53.6 °F 100% 30.12 in 7.0 mi East 11.5 mph 18.4 mph 0.01 in Rain Light Rain
4:35 PM 53.6 °F 51.8 °F 94% 30.11 in 10.0 mi ENE 13.8 mph 18.4 mph 0.02 in   Light Drizzle
4:55 PM 53.6 °F 51.8 °F 94% 30.12 in 7.0 mi East 15.0 mph 19.6 mph 0.03 in Rain Light Rain
5:15 PM 53.6 °F 51.8 °F 94% 30.12 in 10.0 mi East 12.7 mph 18.4 mph N/A   Overcast
5:35 PM 53.6 °F 51.8 °F 94% 30.12 in 10.0 mi East 13.8 mph 21.9 mph 0.01 in Rain Light Rain
5:55 PM 53.6 °F 51.8 °F 94% 30.12 in 10.0 mi East 13.8 mph - 0.02 in Rain Light Rain
6:15 PM 53.6 °F 51.8 °F 94% 30.12 in 10.0 mi East 15.0 mph 18.4 mph 0.02 in Rain Light Rain
6:35 PM 53.6 °F 51.8 °F 94% 30.10 in 10.0 mi East 16.1 mph 20.7 mph 0.03 in Rain Light Rain
6:55 PM 53.6 °F 51.8 °F 94% 30.11 in 10.0 mi East 11.5 mph 19.6 mph 0.04 in Rain Light Rain
7:15 PM 53.6 °F 51.8 °F 94% 30.10 in 10.0 mi East 17.3 mph - N/A   Light Drizzle
7:35 PM 53.6 °F 51.8 °F 94% 30.08 in 10.0 mi ENE 20.7 mph 24.2 mph 0.01 in   Overcast
7:55 PM 53.6 °F 53.6 °F 100% 30.09 in 10.0 mi East 12.7 mph - 0.01 in   Overcast
8:15 PM 53.6 °F 53.6 °F 100% 30.09 in 10.0 mi East 15.0 mph 18.4 mph N/A   Overcast
8:35 PM 53.6 °F 53.6 °F 100% 30.10 in 10.0 mi East 15.0 mph 21.9 mph N/A   Overcast
8:55 PM 53.6 °F 53.6 °F 100% 30.07 in 10.0 mi East 18.4 mph 23.0 mph N/A   Overcast
9:15 PM 53.6 °F 53.6 °F 100% 30.05 in 10.0 mi East 18.4 mph 24.2 mph N/A   Overcast
9:35 PM 53.6 °F 53.6 °F 100% 30.05 in 10.0 mi East 19.6 mph 25.3 mph N/A   Overcast
9:55 PM 53.6 °F 53.6 °F 100% 30.07 in 10.0 mi East 13.8 mph - N/A   Overcast
10:15 PM 53.6 °F 53.6 °F 100% 30.09 in 10.0 mi East 13.8 mph - N/A   Overcast
10:35 PM 53.6 °F 53.6 °F 100% 30.09 in 10.0 mi East 9.2 mph - N/A   Overcast
10:55 PM 53.6 °F 53.6 °F 100% 30.07 in 7.0 mi East 9.2 mph - N/A   Overcast
11:15 PM 53.6 °F 53.6 °F 100% 30.08 in 7.0 mi East 9.2 mph - N/A   Overcast
11:35 PM 53.6 °F 53.6 °F 100% 30.09 in 3.0 mi East 10.4 mph - N/A   Overcast
11:55 PM 53.6 °F 53.6 °F 100% 30.08 in 2.0 mi ENE 11.5 mph - N/A   Overcast